Regional Weather Roundup
Issued by NWS Sterling, VA

Home | Current Version | Previous Version | Text Only | Print | Product List | Glossary On
Versions: 1 2 3 4 5 6 7 8 9 10 11 12 13 14 15 16 17 18 19 20 21 22 23 24 25 26 27 28 29 30 31 32 33 34 35 36 37 38 39 40 41 42 43 44 45 46 47 48 49 50
000
ASUS41 KLWX 241310
RWRLWX

REGIONAL WEATHER ROUNDUP
NATIONAL WEATHER SERVICE BALTIMORE MD/WASHINGTON DC
800 AM EST TUE JAN 24 2017

Note: "FAIR" indicates few or no clouds below 12,000 feet
with no significant weather and/or obstructions to visibility.
 TC=TEMPERATURE CELSIUS

 * =Non NWS site. Station does not report precipitation (e.g. rain,
    snow, etc.), thunder, or fog.

DCZ001-MDZ009-015-VAZ040>042-051-053>054-241400-
WASHINGTON METRO

CITY           SKY/WX    TMP DP  RH WIND       PRES   REMARKS
WASHINGTON NAT MOCLDY    39  36  89 NW18G26   29.51R
DULLES         CLOUDY    38  34  85 N10       29.52R
ANDREWS AFB    CLOUDY    38  36  91 NW15      29.48R
FT BELVOIR     PTCLDY    39  34  82 NW12G20   29.50S
QUANTICO       MOCLDY    40  36  86 N12       29.53R
COLLEGE PARK*  CLOUDY    37  34  87 NW8       29.50S
LEESBURG*      CLOUDY    39  37  93 NW17      29.54R
MANASSAS*      PTCLDY   N/A N/A N/A N17       29.53R
GAITHERSBURG*  CLOUDY    36  32  87 NW9       29.54S WCI  29

$$

MDZ006>007-011-014-241400-
BALTIMORE METRO

CITY           SKY/WX    TMP DP  RH WIND       PRES   REMARKS
BWI AIRPORT    MOCLDY    38  36  92 NW12G21   29.47S
MD SCIENCE CTR   N/A     40  33  76 MISG      29.47F
MARTIN STATE   CLOUDY    39  37  93 NW15G24   29.48S
ANNAPOLIS      CLOUDY    40  37  89 NW14      29.47R
FORT MEADE*    CLOUDY    37  36  93 NW7       29.51S

$$

MDZ012-015-019>023-241400-
MARYLAND EASTERN SHORE

CITY           SKY/WX    TMP DP  RH WIND       PRES   REMARKS
OCEAN CITY     CLOUDY    39  37  92 NW14G22   29.38R
SALISBURY      CLOUDY    39  37  92 NW14G22   29.40R
BAY BRIDGE AP* CLOUDY    39  37  93 NW17G25   29.46S
CAMBRIDGE*     CLOUDY    37  36  93 NW15G21   29.43S WCI  28
EASTON*        CLOUDY    39  37  93 NW14      29.47S FOG

$$

MDZ017>025-241400-
SOUTHERN MARYLAND

CITY           SKY/WX    TMP DP  RH WIND       PRES   REMARKS
PATUXENT RIVER CLOUDY    40  37  89 NW22      29.46R
ST INIGOES     CLOUDY    40  36  86 NW10G20   29.46R
LEONARDTOWN*   CLOUDY    37  36  93 NW8       29.48S

$$

MDZ003>005-241400-
NORTH CENTRAL MARYLAND

CITY           SKY/WX    TMP DP  RH WIND       PRES   REMARKS
FREDERICK*     CLOUDY    37  37 100 CALM      29.56R
HAGERSTOWN APT CLOUDY    37  32  82 NW8       29.54R
WESTMINSTER*     N/A     36  36 100 NW7       29.49S

$$

MDZ501>502-241400-
WESTERN MARYLAND

CITY           SKY/WX    TMP DP  RH WIND       PRES   REMARKS
OAKLAND*       FOG       28  28 100 W12       29.54S VSB 1/4 WCI  18
CUMBERLAND*    MOCLDY    37  34  87 CALM      29.62S

$$

VAZ025>031-241400-
SHENANDOAH VALLEY

CITY           SKY/WX    TMP DP  RH WIND       PRES   REMARKS
WINCHESTER*    MOCLDY    34  32  93 NW9       29.55S WCI  26
FRONT ROYAL*   CLOUDY    36  32  87 CALM      29.55R
LURAY*         CLOUDY    36  36 100 CALM      29.55R
NEW MARKET*    CLOUDY    34  33  96 CALM      29.55R
STAUNTON*      CLOUDY    32  31  96 CALM      29.56S
WAYNESBORO*    CLOUDY    33  31  94 CALM      29.53S

$$

WVZ021-048>050-054>055-241400-
EASTERN WEST VIRGINIA PANHANDLE

CITY           SKY/WX    TMP DP  RH WIND       PRES   REMARKS
MARTINSBURG    MOCLDY    38  32  79 NW13      29.55R
PETERSBURG*    CLOUDY    36  35  94 SE6       29.60R

$$

VAZ036>039-050-241400-
CENTRAL FOOTHILLS

CITY           SKY/WX    TMP DP  RH WIND       PRES   REMARKS
CHARLOTTESVILL MOCLDY    42  31  64 VRB3      29.53R
CULPEPER*      MOCLDY    39  35  84 N8        29.54R
ORANGE*          N/A     37  36  93 CALM      29.55R
GORDONSVILLE*  PTSUNNY   34  33  96 SW3       29.53R
WARRENTON*     PTCLDY    39  32  77 NW8       29.52S

$$

VAZ055>057-241400-
NORTH AND CENTRAL PIEDMONT

CITY           SKY/WX    TMP DP  RH WIND       PRES   REMARKS
FREDERICKSBRG* PTCLDY    38  38  99 NW9       29.52R
STAFFORD*      CLEAR     36  35  98 NW7       29.56S

$$

NCZ024-NYZ072-PAZ021-071-VAZ022-071-241400-
OTHER REGIONAL OBSERVATIONS

CITY           SKY/WX    TMP DP  RH WIND       PRES   REMARKS
NEW YORK CITY  CLOUDY    35  35 100 NE14G25   29.37S FOG     WCI  26
PHILADELPHIA   CLOUDY    38  33  82 N16G30    29.40R WCI  29
PITTSBURGH     LGT SNOW  36  36 100 W7        29.63S FOG
ROANOKE        MOCLDY    45  33  63 W21G30    29.60R
RICHMOND       PTCLDY    37  35  92 NW12      29.52R
RALEIGH        PTCLDY    42  37  82 W3        29.58R

$$

ANZ530>537-241400-
MARINE OBSERVATIONS

STATION/POSITION TIME  TEMP    WIND        PRES
                       AIR SEA DIR/SP/G
                 (UTC) (F)     (DEG/KT/KT) (MB)
THOMAS PT LIGHT  1300   38 40  320/ 20/ 22   N/A
BALT KEY BRIDGE  1248   39     310/ 17/ 20  997.7S
COVE POINT       1248   39     340/ 24/ 29  998.0R
LEWISETTA        1248   40 44  340/ 13/ 17  997.6R
SOLOMONS ISLAND  1248          330/ 13/ 20   N/A
PINEY POINT      1248          350/ 19/ 23   N/A

$$




USA.gov is the U.S. government's official web portal to all federal, state and local government web resources and services.